Weather History for KAIO - May, 2014

Change the Weather History Date:

Wednesday, May 7, 2014

  Actual Average Record
Temperature  
Mean Temperature 77 °F -  
Max Temperature 95 °F 68 °F 95 °F (2014)
Min Temperature 59 °F 48 °F 41 °F (2003)
Cooling Degree Days 12    
Growing Degree Days 27 (Base 50)    
Moisture  
Dew Point 58 °F    
Average Humidity 55    
Maximum Humidity 94    
Minimum Humidity 16    
Precipitation  
Precipitation 0.00 in - - ()
Sea Level Pressure  
Sea Level Pressure 29.55 in    
Wind  
Wind Speed 12 mph (South)    
Max Wind Speed 24 mph    
Max Gust Speed 33 mph    
Visibility 10 miles    
Events      
Averages and records for this station are not official NWS values.
T = Trace of Precipitation, MM = Missing Value Source: NWS Daily Summary

Daily Weather History Graph

Daily Weather History Graph

Search for Another Location

Airport or City:

Trip Planner

Search our weather history database for the weather conditions in past years. The results will help you decide how hot, cold, wet, or windy it might be!

Date:

Astronomy

May. 07, 2014 Rise Set
Actual Time 6:09 AM CDT 8:24 PM CDT
Civil Twilight 5:39 AM CDT 8:54 PM CDT
Nautical Twilight 5:01 AM CDT 9:32 PM CDT
Astronomical Twilight 4:19 AM CDT 10:14 PM CDT
Moon 1:25 PM CDT (5/7) 2:14 AM CDT (5/7)
Length of Visible Light 15h 15m
Length of Day
14h 14m
First Quarter, 55% of the Moon is Illuminated
May 7
First Quarter
May 14
Full
May 21
Last Quarter
May 28
New
Jun 5
First Quarter

Hourly Weather History & Observations

Time (CDT) Temp. Heat Index Dew Point Humidity Pressure Visibility Wind Dir Wind Speed Gust Speed Precip Events Conditions
12:15 AM 68.0 °F - 53.6 °F 60% 29.57 in 10.0 mi East 15.0 mph 23.0 mph N/A   Scattered Clouds
12:35 AM 66.2 °F - 53.6 °F 64% 29.57 in 10.0 mi East 16.1 mph 23.0 mph N/A   Scattered Clouds
12:55 AM 66.2 °F - 53.6 °F 64% 29.57 in 10.0 mi East 15.0 mph - N/A   Partly Cloudy
1:15 AM 64.4 °F - 53.6 °F 68% 29.57 in 10.0 mi East 11.5 mph - N/A   Scattered Clouds
1:35 AM 64.4 °F - 53.6 °F 68% 29.57 in 10.0 mi East 8.1 mph 13.8 mph N/A   Scattered Clouds
1:55 AM 64.4 °F - 53.6 °F 68% 29.56 in 10.0 mi Variable 6.9 mph - N/A   Mostly Cloudy
2:15 AM 62.6 °F - 53.6 °F 72% 29.56 in 10.0 mi Calm Calm - N/A   Mostly Cloudy
2:35 AM 62.6 °F - 55.4 °F 77% 29.55 in 10.0 mi Variable 5.8 mph - N/A   Mostly Cloudy
2:55 AM 62.6 °F - 55.4 °F 77% 29.55 in 10.0 mi Variable 3.5 mph - N/A   Mostly Cloudy
3:15 AM 60.8 °F - 55.4 °F 82% 29.55 in 10.0 mi Variable 4.6 mph - N/A   Scattered Clouds
3:35 AM 62.6 °F - 55.4 °F 77% 29.55 in 10.0 mi NNE 4.6 mph - N/A   Scattered Clouds
3:55 AM 60.8 °F - 55.4 °F 82% 29.55 in 10.0 mi NNE 4.6 mph - N/A   Mostly Cloudy
4:15 AM 60.8 °F - 55.4 °F 82% 29.55 in 10.0 mi NE 4.6 mph - N/A   Mostly Cloudy
4:35 AM 60.8 °F - 55.4 °F 82% 29.55 in 10.0 mi NE 6.9 mph - N/A   Mostly Cloudy
4:55 AM 62.6 °F - 57.2 °F 82% 29.55 in 10.0 mi Calm Calm - N/A   Mostly Cloudy
5:15 AM 66.2 °F - 60.8 °F 83% 29.55 in 10.0 mi SE 9.2 mph - N/A   Mostly Cloudy
5:35 AM 66.2 °F - 59.0 °F 78% 29.55 in 10.0 mi Calm Calm - N/A   Scattered Clouds
5:55 AM 59.0 °F - 57.2 °F 94% 29.55 in 9.0 mi Calm Calm - N/A   Scattered Clouds
6:15 AM 64.4 °F - 60.8 °F 88% 29.56 in 9.0 mi SE 6.9 mph - N/A   Partly Cloudy
6:35 AM 68.0 °F - 62.6 °F 83% 29.56 in 10.0 mi SSE 5.8 mph 12.7 mph N/A   Clear
6:55 AM 68.0 °F - 62.6 °F 83% 29.57 in 10.0 mi Variable 5.8 mph - N/A   Clear
7:15 AM 68.0 °F - 62.6 °F 83% 29.57 in 10.0 mi Variable 3.5 mph - N/A   Clear
7:35 AM 68.0 °F - 62.6 °F 83% 29.58 in 10.0 mi Variable 5.8 mph - N/A   Clear
7:55 AM 69.8 °F - 62.6 °F 78% 29.58 in 10.0 mi SSE 8.1 mph - N/A   Clear
8:15 AM 71.6 °F - 62.6 °F 73% 29.58 in 10.0 mi South 12.7 mph - N/A   Clear
8:35 AM 71.6 °F - 62.6 °F 73% 29.57 in 10.0 mi South 12.7 mph 19.6 mph N/A   Clear
8:55 AM 73.4 °F - 62.6 °F 69% 29.57 in 10.0 mi South 16.1 mph - N/A   Clear
9:15 AM 75.2 °F - 62.6 °F 65% 29.57 in 10.0 mi South 18.4 mph - N/A   Clear
9:35 AM 75.2 °F - 62.6 °F 65% 29.57 in 10.0 mi South 16.1 mph 21.9 mph N/A   Clear
9:55 AM 77.0 °F - 62.6 °F 61% 29.57 in 10.0 mi South 15.0 mph 24.2 mph N/A   Clear
10:15 AM 77.0 °F - 62.6 °F 61% 29.57 in 10.0 mi South 12.7 mph 20.7 mph N/A   Clear
10:35 AM 78.8 °F - 62.6 °F 57% 29.58 in 10.0 mi SSW 13.8 mph 21.9 mph N/A   Clear
10:55 AM 78.8 °F - 62.6 °F 57% 29.58 in 10.0 mi SSW 15.0 mph - N/A   Clear
11:15 AM 78.8 °F - 62.6 °F 57% 29.57 in 10.0 mi SSW 13.8 mph - N/A   Clear
11:35 AM 80.6 °F 81.8 °F 62.6 °F 54% 29.57 in 10.0 mi South 10.4 mph 16.1 mph N/A   Clear
11:55 AM 82.4 °F 83.4 °F 62.6 °F 51% 29.57 in 10.0 mi South 11.5 mph 20.7 mph N/A   Clear
12:15 PM 82.4 °F 83.4 °F 62.6 °F 51% 29.56 in 10.0 mi South 11.5 mph 19.6 mph N/A   Clear
12:35 PM 82.4 °F 82.9 °F 60.8 °F 48% 29.57 in 10.0 mi South 13.8 mph 23.0 mph N/A   Clear
12:55 PM 84.2 °F 84.4 °F 60.8 °F 45% 29.57 in 9.0 mi South 12.7 mph 21.9 mph N/A   Clear
1:15 PM 86.0 °F 86.1 °F 60.8 °F 43% 29.56 in 10.0 mi South 15.0 mph 21.9 mph N/A   Clear
1:35 PM 86.0 °F 86.1 °F 60.8 °F 43% 29.56 in 10.0 mi South 20.7 mph - N/A   Clear
1:55 PM 86.0 °F 86.1 °F 60.8 °F 43% 29.56 in 10.0 mi SSE 13.8 mph 27.6 mph N/A   Clear
2:15 PM 87.8 °F 87.1 °F 59.0 °F 38% 29.55 in 10.0 mi SSE 17.3 mph 29.9 mph N/A   Clear
2:35 PM 89.6 °F 88.9 °F 59.0 °F 36% 29.54 in 10.0 mi South 18.4 mph - N/A   Clear
2:55 PM 89.6 °F 88.9 °F 59.0 °F 36% 29.53 in 10.0 mi South 16.1 mph 24.2 mph N/A   Clear
3:15 PM 91.4 °F 90.7 °F 59.0 °F 34% 29.52 in 10.0 mi South 17.3 mph 27.6 mph N/A   Clear
3:35 PM 91.4 °F 89.9 °F 57.2 °F 31% 29.51 in 10.0 mi South 18.4 mph 28.8 mph N/A   Clear
3:55 PM 91.4 °F 89.9 °F 57.2 °F 31% 29.50 in 10.0 mi SSE 21.9 mph 29.9 mph N/A   Clear
4:15 PM 93.2 °F 91.3 °F 55.4 °F 28% 29.49 in 10.0 mi South 19.6 mph 31.1 mph N/A   Clear
4:35 PM 93.2 °F 91.3 °F 55.4 °F 28% 29.49 in 10.0 mi South 20.7 mph 27.6 mph N/A   Clear
4:55 PM 93.2 °F 90.8 °F 53.6 °F 26% 29.49 in 10.0 mi SSW 17.3 mph 25.3 mph N/A   Partly Cloudy
5:15 PM 95.0 °F - 42.8 °F 16% 29.49 in 10.0 mi SW 24.2 mph 29.9 mph N/A   Clear
5:35 PM 93.2 °F - 44.6 °F 19% 29.50 in 10.0 mi SSW 20.7 mph 33.4 mph N/A   Clear
5:55 PM 93.2 °F - 46.4 °F 20% 29.50 in 10.0 mi SSW 19.6 mph - N/A   Partly Cloudy
6:15 PM 93.2 °F - 48.2 °F 21% 29.50 in 10.0 mi SSW 18.4 mph 27.6 mph N/A   Partly Cloudy
6:35 PM 91.4 °F - 50.0 °F 24% 29.50 in 10.0 mi SSW 18.4 mph - N/A   Clear
6:55 PM 91.4 °F - 50.0 °F 24% 29.49 in 10.0 mi South 20.7 mph 26.5 mph N/A   Clear
7:15 PM 91.4 °F - 51.8 °F 26% 29.49 in 10.0 mi South 23.0 mph 31.1 mph N/A   Clear
7:35 PM 89.6 °F 87.3 °F 53.6 °F 29% 29.50 in 10.0 mi South 16.1 mph 24.2 mph N/A   Clear
7:55 PM 87.8 °F 85.7 °F 53.6 °F 31% 29.51 in 10.0 mi South 15.0 mph 24.2 mph N/A   Clear
8:15 PM 86.0 °F 84.5 °F 55.4 °F 35% 29.51 in 10.0 mi South 17.3 mph - N/A   Clear
8:35 PM 84.2 °F 83.8 °F 59.0 °F 42% 29.52 in 10.0 mi South 17.3 mph 28.8 mph N/A   Clear
8:55 PM 84.2 °F 83.8 °F 59.0 °F 42% 29.53 in 10.0 mi South 21.9 mph 32.2 mph N/A   Clear
9:15 PM 82.4 °F 82.5 °F 59.0 °F 45% 29.55 in 10.0 mi South 13.8 mph 23.0 mph N/A   Clear
9:35 PM 82.4 °F 82.9 °F 60.8 °F 48% 29.56 in 10.0 mi South 21.9 mph 27.6 mph N/A   Clear
9:55 PM 82.4 °F 83.4 °F 62.6 °F 51% 29.58 in 10.0 mi South 17.3 mph 27.6 mph N/A   Partly Cloudy
10:15 PM 80.6 °F 81.8 °F 62.6 °F 54% 29.58 in 10.0 mi South 18.4 mph 26.5 mph N/A   Partly Cloudy
10:35 PM 80.6 °F 82.3 °F 64.4 °F 58% 29.59 in 10.0 mi South 16.1 mph 24.2 mph N/A   Clear
10:55 PM 78.8 °F - 64.4 °F 61% 29.61 in 10.0 mi SSW 11.5 mph - N/A   Scattered Clouds
11:15 PM 78.8 °F - 64.4 °F 61% 29.62 in 10.0 mi South 11.5 mph 17.3 mph N/A   Mostly Cloudy
11:55 PM 77.0 °F - 62.6 °F 61% 29.64 in 10.0 mi SSW 9.2 mph - N/A   Mostly Cloudy